Wetterdaten: Montag, 21.09.2015
Datum Zeit Auen-Temp. Temp gefhlt Luftfeuchte Luftdruck Regen Wind Richtung Richtung Taupunkt Windben
21.09.2015 00:00 9,5 C 9,5 C 85 % 1022,0 hPa 0,0 mm 0,0 km/h (0 Bft) O-NO 67 7,1 C 0,0 km/h (0 Bft)
21.09.2015 00:05 9,5 C 9,4 C 87 % 1022,0 hPa 0,0 mm 0,0 km/h (0 Bft) O-NO 67 7,4 C 0,0 km/h (0 Bft)
21.09.2015 00:10 9,5 C 9,4 C 86 % 1022,0 hPa 0,0 mm 0,0 km/h (0 Bft) S-SO 157 7,3 C 2,6 km/h (1 Bft)
21.09.2015 00:15 9,5 C 9,5 C 85 % 1021,9 hPa 0,0 mm 0,5 km/h (0 Bft) S-SO 157 7,1 C 3,1 km/h (1 Bft)
21.09.2015 00:20 9,6 C 9,6 C 86 % 1021,9 hPa 0,0 mm 0,8 km/h (0 Bft) S 180 7,4 C 4,4 km/h (1 Bft)
21.09.2015 00:25 9,6 C 9,5 C 88 % 1021,9 hPa 0,0 mm 0,5 km/h (0 Bft) SW 225 7,7 C 0,0 km/h (0 Bft)
21.09.2015 00:30 9,6 C 9,5 C 88 % 1021,9 hPa 0,0 mm 0,0 km/h (0 Bft) S-SO 157 7,7 C 0,0 km/h (0 Bft)
21.09.2015 00:35 9,6 C 9,5 C 88 % 1021,8 hPa 0,0 mm 0,0 km/h (0 Bft) S-SO 157 7,7 C 0,0 km/h (0 Bft)
21.09.2015 00:40 9,6 C 9,5 C 87 % 1021,8 hPa 0,0 mm 0,0 km/h (0 Bft) S-SW 202 7,5 C 0,0 km/h (0 Bft)
21.09.2015 00:45 9,6 C 9,5 C 87 % 1021,8 hPa 0,0 mm 0,0 km/h (0 Bft) S-SW 202 7,5 C 3,6 km/h (1 Bft)
21.09.2015 00:50 9,6 C 9,5 C 87 % 1021,8 hPa 0,0 mm 0,8 km/h (0 Bft) SW 225 7,5 C 4,7 km/h (1 Bft)
21.09.2015 00:55 9,5 C 9,4 C 87 % 1021,6 hPa 0,0 mm 0,8 km/h (0 Bft) W-SW 247 7,4 C 0,0 km/h (0 Bft)
21.09.2015 01:00 9,4 C 9,3 C 87 % 1021,6 hPa 0,0 mm 0,3 km/h (0 Bft) S-SW 202 7,3 C 0,0 km/h (0 Bft)
21.09.2015 01:05 9,4 C 9,3 C 87 % 1021,6 hPa 0,0 mm 0,0 km/h (0 Bft) S-SW 202 7,3 C 0,0 km/h (0 Bft)
21.09.2015 01:10 9,3 C 9,2 C 87 % 1021,6 hPa 0,0 mm 0,0 km/h (0 Bft) S-SW 202 7,2 C 0,0 km/h (0 Bft)
21.09.2015 01:15 9,3 C 9,2 C 87 % 1021,6 hPa 0,0 mm 0,0 km/h (0 Bft) SW 225 7,2 C 0,0 km/h (0 Bft)
21.09.2015 01:20 9,3 C 9,1 C 87 % 1021,6 hPa 0,0 mm 0,0 km/h (0 Bft) SW 225 7,2 C 0,0 km/h (0 Bft)
21.09.2015 01:25 9,2 C 9,0 C 87 % 1021,6 hPa 0,0 mm 0,0 km/h (0 Bft) SW 225 7,2 C 0,0 km/h (0 Bft)
21.09.2015 01:30 9,1 C 8,9 C 87 % 1021,6 hPa 0,0 mm 0,0 km/h (0 Bft) SW 225 7,1 C 0,0 km/h (0 Bft)
21.09.2015 01:35 9,0 C 8,8 C 87 % 1021,2 hPa 0,0 mm 0,0 km/h (0 Bft) SW 225 7,0 C 0,0 km/h (0 Bft)
21.09.2015 01:40 8,9 C 8,7 C 88 % 1021,2 hPa 0,0 mm 0,0 km/h (0 Bft) SW 225 7,0 C 0,0 km/h (0 Bft)
21.09.2015 01:45 8,9 C 8,7 C 88 % 1021,2 hPa 0,0 mm 0,0 km/h (0 Bft) W-SW 247 7,0 C 0,0 km/h (0 Bft)
21.09.2015 01:50 9,0 C 8,8 C 87 % 1021,2 hPa 0,0 mm 0,0 km/h (0 Bft) SW 225 7,0 C 0,0 km/h (0 Bft)
21.09.2015 01:55 9,0 C 8,8 C 87 % 1021,2 hPa 0,0 mm 0,0 km/h (0 Bft) SW 225 7,0 C 0,0 km/h (0 Bft)
21.09.2015 02:00 9,0 C 8,8 C 88 % 1021,2 hPa 0,0 mm 0,0 km/h (0 Bft) W 270 7,1 C 0,0 km/h (0 Bft)
21.09.2015 02:05 9,0 C 8,8 C 88 % 1021,2 hPa 0,0 mm 0,0 km/h (0 Bft) W 270 7,1 C 0,0 km/h (0 Bft)
21.09.2015 02:10 9,0 C 8,8 C 88 % 1021,2 hPa 0,0 mm 0,0 km/h (0 Bft) W 270 7,1 C 0,0 km/h (0 Bft)
21.09.2015 02:15 9,0 C 8,8 C 88 % 1020,9 hPa 0,0 mm 0,0 km/h (0 Bft) W-SW 247 7,1 C 0,0 km/h (0 Bft)
21.09.2015 02:20 9,0 C 8,8 C 88 % 1020,9 hPa 0,0 mm 0,0 km/h (0 Bft) N-NW 337 7,1 C 0,0 km/h (0 Bft)
21.09.2015 02:25 8,8 C 8,7 C 88 % 1020,9 hPa 0,0 mm 0,0 km/h (0 Bft) N-NW 337 6,9 C 0,0 km/h (0 Bft)
21.09.2015 02:30 8,6 C 8,5 C 88 % 1020,9 hPa 0,0 mm 0,0 km/h (0 Bft) NW 315 6,7 C 0,0 km/h (0 Bft)
21.09.2015 02:35 8,6 C 8,4 C 88 % 1020,8 hPa 0,0 mm 0,0 km/h (0 Bft) W-SW 247 6,7 C 0,0 km/h (0 Bft)
21.09.2015 02:40 8,7 C 8,5 C 88 % 1020,8 hPa 0,0 mm 0,0 km/h (0 Bft) S 180 6,8 C 0,0 km/h (0 Bft)
21.09.2015 02:45 8,7 C 8,5 C 88 % 1020,8 hPa 0,0 mm 0,0 km/h (0 Bft) S-SW 202 6,8 C 0,0 km/h (0 Bft)
21.09.2015 02:50 8,8 C 8,6 C 88 % 1020,8 hPa 0,0 mm 0,0 km/h (0 Bft) S-SO 157 6,9 C 0,0 km/h (0 Bft)
21.09.2015 02:55 8,8 C 8,6 C 88 % 1020,6 hPa 0,0 mm 0,0 km/h (0 Bft) S-SO 157 6,9 C 0,0 km/h (0 Bft)
21.09.2015 03:00 8,7 C 8,6 C 88 % 1020,6 hPa 0,0 mm 0,0 km/h (0 Bft) S 180 6,8 C 0,0 km/h (0 Bft)
21.09.2015 03:05 8,6 C 8,5 C 88 % 1020,6 hPa 0,0 mm 0,0 km/h (0 Bft) S 180 6,7 C 0,0 km/h (0 Bft)
21.09.2015 03:10 8,6 C 8,4 C 88 % 1020,6 hPa 0,0 mm 0,0 km/h (0 Bft) S-SO 157 6,7 C 0,0 km/h (0 Bft)
21.09.2015 03:15 8,5 C 8,4 C 88 % 1020,2 hPa 0,0 mm 0,0 km/h (0 Bft) S-SO 157 6,6 C 0,0 km/h (0 Bft)
21.09.2015 03:20 8,4 C 8,2 C 88 % 1020,2 hPa 0,0 mm 0,0 km/h (0 Bft) SW 225 6,5 C 0,0 km/h (0 Bft)
21.09.2015 03:25 8,4 C 8,2 C 88 % 1020,2 hPa 0,0 mm 0,0 km/h (0 Bft) W-SW 247 6,5 C 0,0 km/h (0 Bft)
21.09.2015 03:30 8,5 C 8,3 C 88 % 1020,2 hPa 0,0 mm 0,0 km/h (0 Bft) SW 225 6,6 C 0,0 km/h (0 Bft)
21.09.2015 03:35 8,4 C 8,2 C 88 % 1020,1 hPa 0,0 mm 0,0 km/h (0 Bft) SW 225 6,5 C 0,0 km/h (0 Bft)
21.09.2015 03:40 8,3 C 8,1 C 88 % 1020,1 hPa 0,0 mm 0,0 km/h (0 Bft) SW 225 6,4 C 0,0 km/h (0 Bft)
21.09.2015 03:45 8,4 C 8,2 C 89 % 1020,1 hPa 0,0 mm 0,0 km/h (0 Bft) SW 225 6,7 C 0,0 km/h (0 Bft)
21.09.2015 03:50 8,3 C 8,1 C 89 % 1020,1 hPa 0,0 mm 0,0 km/h (0 Bft) SW 225 6,6 C 0,0 km/h (0 Bft)
21.09.2015 03:55 8,3 C 8,1 C 89 % 1020,1 hPa 0,0 mm 0,0 km/h (0 Bft) S 180 6,6 C 0,0 km/h (0 Bft)
21.09.2015 04:00 8,2 C 8,0 C 89 % 1020,1 hPa 0,0 mm 0,3 km/h (0 Bft) S 180 6,5 C 0,0 km/h (0 Bft)
21.09.2015 04:05 8,0 C 7,9 C 89 % 1020,1 hPa 0,0 mm 0,5 km/h (0 Bft) SW 225 6,3 C 3,6 km/h (1 Bft)
21.09.2015 04:10 7,7 C 7,6 C 89 % 1020,1 hPa 0,0 mm 0,3 km/h (0 Bft) S-SO 157 6,0 C 0,0 km/h (0 Bft)
21.09.2015 04:15 7,3 C 7,2 C 89 % 1019,9 hPa 0,0 mm 0,3 km/h (0 Bft) S 180 5,6 C 0,0 km/h (0 Bft)
21.09.2015 04:20 7,2 C 7,0 C 89 % 1019,9 hPa 0,0 mm 0,0 km/h (0 Bft) S 180 5,5 C 0,0 km/h (0 Bft)
21.09.2015 04:25 7,1 C 6,9 C 89 % 1019,9 hPa 0,0 mm 0,0 km/h (0 Bft) S 180 5,4 C 0,0 km/h (0 Bft)
21.09.2015 04:30 7,2 C 6,9 C 89 % 1019,9 hPa 0,0 mm 0,0 km/h (0 Bft) S 180 5,5 C 0,0 km/h (0 Bft)
21.09.2015 04:35 7,0 C 7,0 C 86 % 1019,6 hPa 0,0 mm 0,3 km/h (0 Bft) SW 225 4,8 C 2,6 km/h (1 Bft)
21.09.2015 04:40 7,3 C 7,1 C 89 % 1019,6 hPa 0,0 mm 1,6 km/h (1 Bft) S 180 5,6 C 5,4 km/h (1 Bft)
21.09.2015 04:45 7,1 C 6,9 C 89 % 1019,6 hPa 0,0 mm 1,6 km/h (1 Bft) S 180 5,4 C 0,0 km/h (0 Bft)
21.09.2015 04:50 6,7 C 6,6 C 90 % 1019,6 hPa 0,0 mm 0,0 km/h (0 Bft) SW 225 5,2 C 0,0 km/h (0 Bft)
21.09.2015 04:55 6,5 C 6,4 C 89 % 1019,6 hPa 0,0 mm 0,0 km/h (0 Bft) W-SW 247 4,8 C 0,0 km/h (0 Bft)
21.09.2015 05:00 6,5 C 6,3 C 89 % 1019,6 hPa 0,0 mm 0,0 km/h (0 Bft) S 180 4,8 C 0,0 km/h (0 Bft)
21.09.2015 05:05 6,1 C 6,0 C 89 % 1019,6 hPa 0,0 mm 0,0 km/h (0 Bft) S 180 4,4 C 0,0 km/h (0 Bft)
21.09.2015 05:10 5,9 C 5,9 C 90 % 1019,6 hPa 0,0 mm 0,0 km/h (0 Bft) S 180 4,4 C 0,0 km/h (0 Bft)
21.09.2015 05:15 6,1 C 5,9 C 89 % 1019,2 hPa 0,0 mm 0,0 km/h (0 Bft) SW 225 4,4 C 0,0 km/h (0 Bft)
21.09.2015 05:20 6,1 C 5,9 C 89 % 1019,2 hPa 0,0 mm 0,0 km/h (0 Bft) S 180 4,4 C 0,0 km/h (0 Bft)
21.09.2015 05:25 5,8 C 5,7 C 90 % 1019,2 hPa 0,0 mm 0,0 km/h (0 Bft) S 180 4,3 C 0,0 km/h (0 Bft)
21.09.2015 05:30 5,9 C 5,7 C 90 % 1019,2 hPa 0,0 mm 0,0 km/h (0 Bft) S 180 4,4 C 0,0 km/h (0 Bft)
21.09.2015 05:35 5,8 C 5,6 C 90 % 1019,4 hPa 0,0 mm 0,0 km/h (0 Bft) W-SW 247 4,3 C 0,0 km/h (0 Bft)
21.09.2015 05:40 5,7 C 5,5 C 90 % 1019,4 hPa 0,0 mm 0,0 km/h (0 Bft) W-SW 247 4,2 C 0,0 km/h (0 Bft)
21.09.2015 05:45 5,4 C 5,3 C 90 % 1019,4 hPa 0,0 mm 0,0 km/h (0 Bft) W-SW 247 3,9 C 0,0 km/h (0 Bft)
21.09.2015 05:50 5,5 C 5,2 C 90 % 1019,4 hPa 0,0 mm 0,0 km/h (0 Bft) W-SW 247 4,0 C 0,0 km/h (0 Bft)
21.09.2015 05:55 5,6 C 5,5 C 88 % 1019,2 hPa 0,0 mm 0,0 km/h (0 Bft) SW 225 3,8 C 0,0 km/h (0 Bft)
21.09.2015 06:00 5,4 C 5,2 C 88 % 1019,2 hPa 0,0 mm 0,0 km/h (0 Bft) SW 225 3,6 C 0,0 km/h (0 Bft)
21.09.2015 06:05 5,3 C 5,1 C 90 % 1019,2 hPa 0,0 mm 0,0 km/h (0 Bft) SW 225 3,8 C 0,0 km/h (0 Bft)
21.09.2015 06:10 5,0 C 4,8 C 90 % 1019,2 hPa 0,0 mm 0,0 km/h (0 Bft) W-SW 247 3,5 C 0,0 km/h (0 Bft)
21.09.2015 06:15 5,1 C 4,8 C 90 % 1019,0 hPa 0,0 mm 0,0 km/h (0 Bft) W-SW 247 3,6 C 0,0 km/h (0 Bft)
21.09.2015 06:20 4,5 C 4,4 C 90 % 1019,0 hPa 0,0 mm 0,0 km/h (0 Bft) W-SW 247 3,0 C 0,0 km/h (0 Bft)
21.09.2015 06:25 4,3 C 4,2 C 90 % 1019,0 hPa 0,0 mm 0,0 km/h (0 Bft) W-SW 247 2,8 C 0,0 km/h (0 Bft)
21.09.2015 06:30 4,7 C 4,4 C 90 % 1019,0 hPa 0,0 mm 0,0 km/h (0 Bft) S 180 3,2 C 0,0 km/h (0 Bft)
21.09.2015 06:35 4,5 C 4,3 C 90 % 1019,0 hPa 0,0 mm 0,0 km/h (0 Bft) S 180 3,0 C 0,0 km/h (0 Bft)
21.09.2015 06:40 4,3 C 4,1 C 90 % 1019,0 hPa 0,0 mm 0,0 km/h (0 Bft) W-SW 247 2,8 C 0,0 km/h (0 Bft)
21.09.2015 06:45 4,2 C 4,1 C 90 % 1019,0 hPa 0,0 mm 0,0 km/h (0 Bft) W-SW 247 2,7 C 0,0 km/h (0 Bft)
21.09.2015 06:50 4,8 C 4,5 C 91 % 1019,0 hPa 0,0 mm 0,0 km/h (0 Bft) S 180 3,5 C 0,0 km/h (0 Bft)
21.09.2015 06:55 5,1 C 4,8 C 91 % 1019,1 hPa 0,0 mm 0,0 km/h (0 Bft) S 180 3,8 C 0,0 km/h (0 Bft)
21.09.2015 07:00 5,1 C 4,9 C 91 % 1019,1 hPa 0,0 mm 0,0 km/h (0 Bft) W-SW 247 3,8 C 0,0 km/h (0 Bft)
21.09.2015 07:05 5,2 C 5,1 C 91 % 1019,1 hPa 0,0 mm 0,0 km/h (0 Bft) W-SW 247 3,9 C 0,0 km/h (0 Bft)
21.09.2015 07:10 5,4 C 5,4 C 88 % 1019,1 hPa 0,0 mm 0,0 km/h (0 Bft) W-SW 247 3,6 C 0,0 km/h (0 Bft)
21.09.2015 07:15 5,6 C 5,5 C 92 % 1019,1 hPa 0,0 mm 0,0 km/h (0 Bft) SW 225 4,4 C 0,0 km/h (0 Bft)
21.09.2015 07:20 5,7 C 5,7 C 88 % 1019,1 hPa 0,0 mm 0,0 km/h (0 Bft) W-SW 247 3,9 C 0,0 km/h (0 Bft)
21.09.2015 07:25 5,8 C 5,9 C 88 % 1019,1 hPa 0,0 mm 0,0 km/h (0 Bft) W-SW 247 4,0 C 0,0 km/h (0 Bft)
21.09.2015 07:26 5,8 C 5,9 C 88 % 1019,1 hPa 0,0 mm 0,0 km/h (0 Bft) W-SW 247 4,0 C 0,0 km/h (0 Bft)
21.09.2015 07:30 5,8 C 5,9 C 88 % 1019,1 hPa 0,0 mm 0,0 km/h (0 Bft) W-SW 247 4,0 C 0,0 km/h (0 Bft)
21.09.2015 07:35 6,0 C 6,1 C 88 % 1018,9 hPa 0,0 mm 0,0 km/h (0 Bft) W-SW 247 4,2 C 0,0 km/h (0 Bft)
21.09.2015 07:40 6,1 C 6,3 C 88 % 1018,9 hPa 0,0 mm 0,0 km/h (0 Bft) W-SW 247 4,3 C 0,0 km/h (0 Bft)
21.09.2015 07:45 6,1 C 6,3 C 88 % 1018,9 hPa 0,0 mm 0,3 km/h (0 Bft) NW 315 4,3 C 0,0 km/h (0 Bft)
21.09.2015 07:50 6,2 C 6,4 C 88 % 1018,9 hPa 0,0 mm 0,3 km/h (0 Bft) NW 315 4,4 C 0,0 km/h (0 Bft)
21.09.2015 07:55 6,3 C 6,6 C 88 % 1019,0 hPa 0,0 mm 0,0 km/h (0 Bft) N-NW 337 4,5 C 0,0 km/h (0 Bft)
21.09.2015 08:00 6,4 C 6,8 C 88 % 1019,0 hPa 0,0 mm 0,0 km/h (0 Bft) NW 315 4,6 C 0,0 km/h (0 Bft)
21.09.2015 08:05 6,6 C 6,9 C 88 % 1019,0 hPa 0,0 mm 0,0 km/h (0 Bft) NW 315 4,8 C 0,0 km/h (0 Bft)
21.09.2015 08:10 6,7 C 7,2 C 88 % 1019,0 hPa 0,0 mm 0,0 km/h (0 Bft) N-NO 22 4,9 C 0,0 km/h (0 Bft)
21.09.2015 08:15 6,8 C 7,3 C 88 % 1018,8 hPa 0,0 mm 0,0 km/h (0 Bft) NW 315 5,0 C 0,0 km/h (0 Bft)
21.09.2015 08:20 7,1 C 7,7 C 88 % 1018,8 hPa 0,0 mm 0,0 km/h (0 Bft) NW 315 5,2 C 0,0 km/h (0 Bft)
21.09.2015 08:25 7,2 C 7,8 C 88 % 1018,8 hPa 0,0 mm 0,0 km/h (0 Bft) NW 315 5,3 C 0,0 km/h (0 Bft)
21.09.2015 08:30 7,4 C 8,0 C 88 % 1018,8 hPa 0,0 mm 0,0 km/h (0 Bft) W-NW 292 5,5 C 0,0 km/h (0 Bft)
21.09.2015 08:35 7,5 C 8,0 C 88 % 1018,6 hPa 0,0 mm 0,3 km/h (0 Bft) NW 315 5,6 C 0,0 km/h (0 Bft)
21.09.2015 08:40 7,5 C 7,9 C 88 % 1018,6 hPa 0,0 mm 0,3 km/h (0 Bft) NW 315 5,6 C 0,0 km/h (0 Bft)
21.09.2015 08:45 7,5 C 7,9 C 88 % 1018,6 hPa 0,0 mm 0,0 km/h (0 Bft) NW 315 5,6 C 0,0 km/h (0 Bft)
21.09.2015 08:50 7,7 C 8,1 C 88 % 1018,6 hPa 0,0 mm 0,0 km/h (0 Bft) W-NW 292 5,8 C 0,0 km/h (0 Bft)
21.09.2015 08:55 7,8 C 8,3 C 88 % 1018,5 hPa 0,0 mm 0,0 km/h (0 Bft) W-NW 292 5,9 C 0,0 km/h (0 Bft)
21.09.2015 09:00 8,1 C 8,7 C 88 % 1018,5 hPa 0,0 mm 0,0 km/h (0 Bft) W-NW 292 6,2 C 0,0 km/h (0 Bft)
21.09.2015 09:05 8,2 C 8,9 C 88 % 1018,5 hPa 0,0 mm 0,0 km/h (0 Bft) N-NW 337 6,3 C 0,0 km/h (0 Bft)
21.09.2015 09:10 8,2 C 9,0 C 88 % 1018,5 hPa 0,0 mm 0,3 km/h (0 Bft) W 270 6,3 C 0,0 km/h (0 Bft)
21.09.2015 09:15 8,3 C 8,9 C 88 % 1018,6 hPa 0,0 mm 0,3 km/h (0 Bft) N-NO 22 6,4 C 0,0 km/h (0 Bft)
21.09.2015 09:20 8,5 C 9,2 C 88 % 1018,6 hPa 0,0 mm 0,8 km/h (0 Bft) NO 45 6,6 C 4,1 km/h (1 Bft)
21.09.2015 09:25 8,6 C 9,3 C 88 % 1018,6 hPa 0,0 mm 2,6 km/h (1 Bft) NO 45 6,7 C 10,1 km/h (2 Bft)
21.09.2015 09:30 8,6 C 9,5 C 88 % 1018,6 hPa 0,0 mm 4,1 km/h (1 Bft) N-NO 22 6,7 C 2,6 km/h (1 Bft)
21.09.2015 09:35 8,7 C 9,6 C 88 % 1018,4 hPa 0,0 mm 3,6 km/h (1 Bft) O 90 6,8 C 6,2 km/h (2 Bft)
21.09.2015 09:40 8,8 C 9,9 C 88 % 1018,4 hPa 0,0 mm 2,1 km/h (1 Bft) N-NW 337 6,9 C 3,1 km/h (1 Bft)
21.09.2015 09:45 9,0 C 10,3 C 88 % 1018,4 hPa 0,0 mm 1,8 km/h (1 Bft) N-NO 22 7,1 C 4,4 km/h (1 Bft)
21.09.2015 09:50 9,1 C 10,5 C 88 % 1018,4 hPa 0,0 mm 2,6 km/h (1 Bft) NO 45 7,2 C 7,3 km/h (2 Bft)
21.09.2015 09:55 9,0 C 10,5 C 88 % 1018,4 hPa 0,0 mm 4,4 km/h (1 Bft) N-NO 22 7,1 C 7,8 km/h (2 Bft)
21.09.2015 10:00 9,1 C 10,6 C 88 % 1018,4 hPa 0,0 mm 3,9 km/h (1 Bft) S-SW 202 7,2 C 3,9 km/h (1 Bft)
21.09.2015 10:05 9,2 C 10,7 C 88 % 1018,4 hPa 0,0 mm 3,4 km/h (1 Bft) O 90 7,3 C 8,5 km/h (2 Bft)
21.09.2015 10:10 9,4 C 11,2 C 88 % 1018,4 hPa 0,0 mm 3,9 km/h (1 Bft) NO 45 7,5 C 5,4 km/h (1 Bft)
21.09.2015 10:15 9,4 C 11,6 C 88 % 1018,2 hPa 0,0 mm 4,4 km/h (1 Bft) SO 135 7,5 C 9,6 km/h (2 Bft)
21.09.2015 10:20 9,5 C 11,7 C 88 % 1018,2 hPa 0,0 mm 4,9 km/h (1 Bft) O-SO 112 7,6 C 3,4 km/h (1 Bft)
21.09.2015 10:25 9,5 C 11,6 C 88 % 1018,2 hPa 0,0 mm 6,0 km/h (2 Bft) O-NO 67 7,6 C 11,1 km/h (2 Bft)
21.09.2015 10:30 9,5 C 11,9 C 87 % 1018,2 hPa 0,0 mm 5,4 km/h (1 Bft) N-NO 22 7,4 C 0,0 km/h (0 Bft)
21.09.2015 10:35 9,7 C 12,2 C 87 % 1018,4 hPa 0,0 mm 4,7 km/h (1 Bft) N 360 7,6 C 9,3 km/h (2 Bft)
21.09.2015 10:40 9,8 C 12,1 C 87 % 1018,4 hPa 0,0 mm 3,1 km/h (1 Bft) O 90 7,7 C 12,4 km/h (3 Bft)
21.09.2015 10:45 9,7 C 11,9 C 87 % 1018,4 hPa 0,0 mm 4,4 km/h (1 Bft) O-NO 67 7,6 C 3,6 km/h (1 Bft)
21.09.2015 10:50 10,0 C 12,3 C 86 % 1018,4 hPa 0,0 mm 4,9 km/h (1 Bft) NO 45 7,8 C 7,5 km/h (2 Bft)
21.09.2015 10:55 10,1 C 12,8 C 86 % 1018,3 hPa 0,0 mm 4,9 km/h (1 Bft) NO 45 7,9 C 11,9 km/h (2 Bft)
21.09.2015 11:00 10,2 C 13,0 C 86 % 1018,3 hPa 0,0 mm 5,4 km/h (1 Bft) O-NO 67 8,0 C 12,9 km/h (3 Bft)
21.09.2015 11:05 10,6 C 13,3 C 86 % 1018,3 hPa 0,0 mm 4,7 km/h (1 Bft) O-NO 67 8,4 C 6,2 km/h (2 Bft)
21.09.2015 11:10 11,1 C 13,9 C 85 % 1018,3 hPa 0,0 mm 4,4 km/h (1 Bft) NO 45 8,7 C 8,0 km/h (2 Bft)
21.09.2015 11:15 11,2 C 14,6 C 85 % 1018,5 hPa 0,0 mm 6,7 km/h (2 Bft) N-NO 22 8,8 C 8,0 km/h (2 Bft)
21.09.2015 11:20 11,5 C 15,1 C 84 % 1018,5 hPa 0,0 mm 8,5 km/h (2 Bft) O-NO 67 8,9 C 16,6 km/h (3 Bft)
21.09.2015 11:25 11,9 C 16,0 C 84 % 1018,5 hPa 0,0 mm 6,7 km/h (2 Bft) N-NO 22 9,3 C 8,0 km/h (2 Bft)
21.09.2015 11:30 11,8 C 15,5 C 83 % 1018,5 hPa 0,0 mm 6,5 km/h (2 Bft) N-NO 22 9,0 C 10,6 km/h (2 Bft)
21.09.2015 11:35 12,2 C 15,7 C 82 % 1019,0 hPa 0,0 mm 7,3 km/h (2 Bft) NO 45 9,2 C 14,0 km/h (3 Bft)
21.09.2015 11:40 12,6 C 16,5 C 82 % 1019,0 hPa 0,0 mm 7,3 km/h (2 Bft) N-NO 22 9,6 C 6,5 km/h (2 Bft)
21.09.2015 11:45 12,6 C 16,9 C 81 % 1019,0 hPa 0,0 mm 7,8 km/h (2 Bft) NO 45 9,4 C 3,6 km/h (1 Bft)
21.09.2015 11:50 12,9 C 17,1 C 79 % 1019,0 hPa 0,0 mm 6,7 km/h (2 Bft) O-SO 112 9,3 C 17,9 km/h (3 Bft)
21.09.2015 11:55 13,1 C 17,4 C 78 % 1019,1 hPa 0,0 mm 6,2 km/h (2 Bft) O-NO 67 9,4 C 7,3 km/h (2 Bft)
21.09.2015 12:00 13,4 C 18,0 C 76 % 1019,1 hPa 0,0 mm 6,5 km/h (2 Bft) O-NO 67 9,3 C 11,4 km/h (2 Bft)
21.09.2015 12:05 13,5 C 18,1 C 76 % 1019,1 hPa 0,0 mm 6,7 km/h (2 Bft) N-NO 22 9,4 C 8,5 km/h (2 Bft)
21.09.2015 12:10 13,8 C 18,6 C 75 % 1019,1 hPa 0,0 mm 6,0 km/h (2 Bft) NO 45 9,4 C 4,4 km/h (1 Bft)
21.09.2015 12:15 14,1 C 19,2 C 75 % 1019,3 hPa 0,0 mm 4,1 km/h (1 Bft) NO 45 9,7 C 6,5 km/h (2 Bft)
21.09.2015 12:20 14,2 C 19,3 C 74 % 1019,3 hPa 0,0 mm 6,0 km/h (2 Bft) N-NO 22 9,6 C 10,4 km/h (2 Bft)
21.09.2015 12:25 14,4 C 19,2 C 73 % 1019,3 hPa 0,0 mm 8,5 km/h (2 Bft) NO 45 9,6 C 10,4 km/h (2 Bft)
21.09.2015 12:30 14,7 C 19,2 C 72 % 1019,3 hPa 0,0 mm 8,3 km/h (2 Bft) O-NO 67 9,7 C 13,7 km/h (3 Bft)
21.09.2015 12:35 14,8 C 19,1 C 72 % 1019,4 hPa 0,0 mm 8,3 km/h (2 Bft) O-SO 112 9,8 C 6,0 km/h (2 Bft)
21.09.2015 12:40 15,1 C 19,7 C 71 % 1019,4 hPa 0,0 mm 7,5 km/h (2 Bft) N-NW 337 9,9 C 8,0 km/h (2 Bft)
21.09.2015 12:45 15,3 C 19,7 C 69 % 1019,4 hPa 0,0 mm 7,3 km/h (2 Bft) N-NO 22 9,6 C 14,5 km/h (3 Bft)
21.09.2015 12:50 15,4 C 19,1 C 69 % 1019,4 hPa 0,0 mm 8,3 km/h (2 Bft) O-NO 67 9,7 C 11,9 km/h (2 Bft)
21.09.2015 12:55 15,3 C 18,4 C 68 % 1019,3 hPa 0,0 mm 8,0 km/h (2 Bft) O-NO 67 9,4 C 7,0 km/h (2 Bft)
21.09.2015 13:00 15,3 C 17,6 C 67 % 1019,3 hPa 0,0 mm 8,5 km/h (2 Bft) O-NO 67 9,2 C 18,4 km/h (3 Bft)
21.09.2015 13:05 15,3 C 17,2 C 67 % 1019,3 hPa 0,0 mm 8,5 km/h (2 Bft) SO 135 9,2 C 5,4 km/h (1 Bft)
21.09.2015 13:10 15,5 C 17,1 C 68 % 1019,3 hPa 0,0 mm 9,6 km/h (2 Bft) NO 45 9,6 C 23,6 km/h (4 Bft)
21.09.2015 13:15 15,7 C 17,3 C 67 % 1019,2 hPa 0,0 mm 9,6 km/h (2 Bft) N-NO 22 9,6 C 15,5 km/h (3 Bft)
21.09.2015 13:20 15,7 C 18,0 C 66 % 1019,2 hPa 0,0 mm 9,8 km/h (2 Bft) O-SO 112 9,4 C 7,5 km/h (2 Bft)
21.09.2015 13:25 15,8 C 18,8 C 67 % 1019,2 hPa 0,0 mm 8,8 km/h (2 Bft) NO 45 9,7 C 15,5 km/h (3 Bft)
21.09.2015 13:28 15,9 C 19,5 C 66 % 1019,2 hPa 0,0 mm 7,8 km/h (2 Bft) N-NO 22 9,6 C 11,4 km/h (2 Bft)
21.09.2015 13:30 15,9 C 19,5 C 66 % 1019,2 hPa 0,0 mm 7,8 km/h (2 Bft) N-NO 22 9,6 C 11,4 km/h (2 Bft)
21.09.2015 13:35 16,0 C 19,8 C 64 % 1019,0 hPa 0,0 mm 10,1 km/h (2 Bft) O-NO 67 9,2 C 14,8 km/h (3 Bft)
21.09.2015 13:40 16,1 C 20,0 C 65 % 1019,0 hPa 0,0 mm 9,3 km/h (2 Bft) O-NO 67 9,5 C 8,5 km/h (2 Bft)
21.09.2015 13:45 16,2 C 20,1 C 64 % 1019,0 hPa 0,0 mm 8,5 km/h (2 Bft) N-NO 22 9,4 C 7,0 km/h (2 Bft)
21.09.2015 13:50 16,2 C 20,2 C 65 % 1019,0 hPa 0,0 mm 8,5 km/h (2 Bft) N-NO 22 9,6 C 7,8 km/h (2 Bft)
21.09.2015 13:55 16,3 C 20,2 C 63 % 1018,7 hPa 0,0 mm 8,8 km/h (2 Bft) N-NO 22 9,2 C 12,2 km/h (2 Bft)
21.09.2015 14:00 16,3 C 20,1 C 63 % 1018,7 hPa 0,0 mm 9,6 km/h (2 Bft) NO 45 9,2 C 23,8 km/h (4 Bft)
21.09.2015 14:05 16,4 C 20,1 C 63 % 1018,7 hPa 0,0 mm 9,3 km/h (2 Bft) N 360 9,3 C 6,5 km/h (2 Bft)
21.09.2015 14:10 16,4 C 20,1 C 62 % 1018,7 hPa 0,0 mm 10,4 km/h (2 Bft) N-NO 22 9,1 C 16,8 km/h (3 Bft)
21.09.2015 14:15 16,4 C 20,0 C 62 % 1018,4 hPa 0,0 mm 10,4 km/h (2 Bft) N 360 9,1 C 12,9 km/h (3 Bft)
21.09.2015 14:20 16,5 C 20,1 C 62 % 1018,4 hPa 0,0 mm 9,8 km/h (2 Bft) NO 45 9,2 C 12,7 km/h (3 Bft)
21.09.2015 14:25 16,5 C 20,1 C 61 % 1018,4 hPa 0,0 mm 10,1 km/h (2 Bft) O-NO 67 9,0 C 14,0 km/h (3 Bft)
21.09.2015 14:30 16,5 C 20,3 C 62 % 1018,4 hPa 0,0 mm 9,6 km/h (2 Bft) N-NO 22 9,2 C 12,9 km/h (3 Bft)
21.09.2015 14:35 16,6 C 20,3 C 61 % 1017,7 hPa 0,0 mm 9,8 km/h (2 Bft) O-NO 67 9,0 C 9,8 km/h (2 Bft)
21.09.2015 14:40 17,1 C 20,9 C 61 % 1017,7 hPa 0,0 mm 8,8 km/h (2 Bft) NO 45 9,5 C 9,6 km/h (2 Bft)
21.09.2015 14:45 17,1 C 21,0 C 60 % 1017,7 hPa 0,0 mm 8,0 km/h (2 Bft) N-NO 22 9,3 C 11,7 km/h (2 Bft)
21.09.2015 14:50 16,9 C 20,7 C 59 % 1017,7 hPa 0,0 mm 9,1 km/h (2 Bft) N-NO 22 8,8 C 8,8 km/h (2 Bft)
21.09.2015 14:55 16,8 C 20,6 C 60 % 1017,0 hPa 0,0 mm 9,6 km/h (2 Bft) NO 45 9,0 C 8,0 km/h (2 Bft)
21.09.2015 15:00 17,2 C 20,9 C 60 % 1017,0 hPa 0,0 mm 8,0 km/h (2 Bft) O-NO 67 9,4 C 10,4 km/h (2 Bft)
21.09.2015 15:05 17,2 C 21,0 C 60 % 1017,0 hPa 0,0 mm 7,5 km/h (2 Bft) O-NO 67 9,4 C 6,2 km/h (2 Bft)
21.09.2015 15:10 17,4 C 21,2 C 59 % 1017,0 hPa 0,0 mm 7,8 km/h (2 Bft) NO 45 9,3 C 16,1 km/h (3 Bft)
21.09.2015 15:15 17,4 C 21,2 C 59 % 1016,8 hPa 0,0 mm 8,3 km/h (2 Bft) NO 45 9,3 C 14,5 km/h (3 Bft)
21.09.2015 15:20 17,4 C 21,3 C 60 % 1016,8 hPa 0,0 mm 7,5 km/h (2 Bft) N-NO 22 9,6 C 8,5 km/h (2 Bft)
21.09.2015 15:25 17,4 C 21,4 C 59 % 1016,8 hPa 0,0 mm 6,5 km/h (2 Bft) O-SO 112 9,3 C 11,4 km/h (2 Bft)
21.09.2015 15:30 17,4 C 21,3 C 59 % 1016,8 hPa 0,0 mm 8,0 km/h (2 Bft) N-NO 22 9,3 C 10,6 km/h (2 Bft)
21.09.2015 15:35 17,3 C 21,1 C 59 % 1016,4 hPa 0,0 mm 8,3 km/h (2 Bft) N-NO 22 9,2 C 5,7 km/h (1 Bft)
21.09.2015 15:40 17,2 C 21,1 C 59 % 1016,4 hPa 0,0 mm 7,8 km/h (2 Bft) NO 45 9,1 C 8,0 km/h (2 Bft)
21.09.2015 15:45 17,3 C 21,1 C 59 % 1016,4 hPa 0,0 mm 6,5 km/h (2 Bft) N 360 9,2 C 5,4 km/h (1 Bft)
21.09.2015 15:50 17,1 C 20,9 C 59 % 1016,4 hPa 0,0 mm 7,3 km/h (2 Bft) N-NO 22 9,0 C 4,7 km/h (1 Bft)
21.09.2015 15:55 17,2 C 21,1 C 59 % 1016,1 hPa 0,0 mm 7,5 km/h (2 Bft) O 90 9,1 C 8,0 km/h (2 Bft)
21.09.2015 16:00 17,3 C 21,4 C 59 % 1016,1 hPa 0,0 mm 5,7 km/h (1 Bft) SO 135 9,2 C 6,7 km/h (2 Bft)
21.09.2015 16:05 17,4 C 21,3 C 59 % 1016,1 hPa 0,0 mm 6,5 km/h (2 Bft) NO 45 9,3 C 14,0 km/h (3 Bft)
21.09.2015 16:10 17,3 C 21,3 C 59 % 1016,1 hPa 0,0 mm 6,0 km/h (2 Bft) N-NO 22 9,2 C 8,5 km/h (2 Bft)
21.09.2015 16:15 17,2 C 21,1 C 59 % 1015,5 hPa 0,0 mm 6,2 km/h (2 Bft) N 360 9,1 C 5,2 km/h (1 Bft)
21.09.2015 16:20 17,0 C 21,1 C 59 % 1015,5 hPa 0,0 mm 6,7 km/h (2 Bft) N-NO 22 8,9 C 6,2 km/h (2 Bft)
21.09.2015 16:25 16,9 C 21,2 C 59 % 1015,5 hPa 0,0 mm 7,0 km/h (2 Bft) O-NO 67 8,8 C 11,7 km/h (2 Bft)
21.09.2015 16:30 16,6 C 21,1 C 59 % 1015,5 hPa 0,0 mm 6,5 km/h (2 Bft) N-NO 22 8,6 C 3,4 km/h (1 Bft)
21.09.2015 16:35 16,4 C 21,4 C 60 % 1015,3 hPa 0,0 mm 4,7 km/h (1 Bft) O-NO 67 8,6 C 6,0 km/h (2 Bft)
21.09.2015 16:40 16,1 C 20,9 C 59 % 1015,3 hPa 0,0 mm 5,2 km/h (1 Bft) O-NO 67 8,1 C 4,7 km/h (1 Bft)
21.09.2015 16:45 16,0 C 19,8 C 59 % 1015,3 hPa 0,0 mm 6,0 km/h (2 Bft) O-SO 112 8,0 C 7,5 km/h (2 Bft)
21.09.2015 16:50 15,9 C 17,9 C 60 % 1015,3 hPa 0,0 mm 4,9 km/h (1 Bft) NO 45 8,1 C 2,8 km/h (1 Bft)
21.09.2015 16:55 15,9 C 17,2 C 60 % 1014,9 hPa 0,0 mm 6,7 km/h (2 Bft) NO 45 8,1 C 11,4 km/h (2 Bft)
21.09.2015 17:00 15,8 C 16,4 C 60 % 1014,9 hPa 0,0 mm 7,5 km/h (2 Bft) NO 45 8,1 C 7,3 km/h (2 Bft)
21.09.2015 17:05 15,8 C 16,3 C 60 % 1014,9 hPa 0,0 mm 7,5 km/h (2 Bft) O-NO 67 8,1 C 4,9 km/h (1 Bft)
21.09.2015 17:10 15,7 C 16,1 C 61 % 1014,9 hPa 0,0 mm 6,0 km/h (2 Bft) O-NO 67 8,2 C 8,8 km/h (2 Bft)
21.09.2015 17:15 15,6 C 16,0 C 61 % 1014,8 hPa 0,0 mm 4,9 km/h (1 Bft) O-NO 67 8,1 C 7,0 km/h (2 Bft)
21.09.2015 17:20 15,6 C 15,7 C 61 % 1014,8 hPa 0,0 mm 5,7 km/h (1 Bft) N-NO 22 8,1 C 6,7 km/h (2 Bft)
21.09.2015 17:25 15,6 C 15,7 C 61 % 1014,8 hPa 0,0 mm 8,0 km/h (2 Bft) N-NO 22 8,1 C 13,5 km/h (3 Bft)
21.09.2015 17:30 15,4 C 15,6 C 61 % 1014,8 hPa 0,0 mm 6,5 km/h (2 Bft) NO 45 7,9 C 9,3 km/h (2 Bft)
21.09.2015 17:35 15,4 C 15,6 C 62 % 1014,6 hPa 0,0 mm 6,5 km/h (2 Bft) O-NO 67 8,2 C 10,9 km/h (2 Bft)
21.09.2015 17:40 15,1 C 15,5 C 62 % 1014,6 hPa 0,0 mm 5,4 km/h (1 Bft) NO 45 7,9 C 0,0 km/h (0 Bft)
21.09.2015 17:45 15,0 C 15,3 C 63 % 1014,6 hPa 0,0 mm 4,4 km/h (1 Bft) O-SO 112 8,0 C 8,0 km/h (2 Bft)
21.09.2015 17:50 14,9 C 15,0 C 63 % 1014,6 hPa 0,0 mm 2,8 km/h (1 Bft) O-NO 67 7,9 C 4,4 km/h (1 Bft)
21.09.2015 17:55 14,8 C 15,0 C 63 % 1014,4 hPa 0,0 mm 2,3 km/h (1 Bft) SO 135 7,8 C 0,0 km/h (0 Bft)
21.09.2015 18:00 14,5 C 14,8 C 64 % 1014,4 hPa 0,0 mm 0,8 km/h (0 Bft) O-NO 67 7,8 C 0,0 km/h (0 Bft)
21.09.2015 18:05 14,4 C 14,7 C 64 % 1014,4 hPa 0,0 mm 0,5 km/h (0 Bft) NO 45 7,7 C 0,0 km/h (0 Bft)
21.09.2015 18:10 14,1 C 14,5 C 65 % 1014,4 hPa 0,0 mm 0,8 km/h (0 Bft) O-SO 112 7,6 C 3,6 km/h (1 Bft)
21.09.2015 18:15 13,9 C 14,3 C 65 % 1014,4 hPa 0,0 mm 1,3 km/h (1 Bft) O-SO 112 7,4 C 3,9 km/h (1 Bft)
21.09.2015 18:20 13,9 C 14,1 C 65 % 1014,4 hPa 0,0 mm 1,0 km/h (0 Bft) N-NO 22 7,4 C 3,9 km/h (1 Bft)
21.09.2015 18:25 13,7 C 14,0 C 65 % 1014,4 hPa 0,0 mm 0,5 km/h (0 Bft) N-NO 22 7,2 C 0,0 km/h (0 Bft)
21.09.2015 18:30 13,7 C 13,8 C 66 % 1014,4 hPa 0,0 mm 0,3 km/h (0 Bft) N-NO 22 7,5 C 4,9 km/h (1 Bft)
21.09.2015 18:35 13,6 C 13,6 C 66 % 1014,2 hPa 0,0 mm 0,3 km/h (0 Bft) O-SO 112 7,4 C 0,0 km/h (0 Bft)
21.09.2015 18:40 13,6 C 13,5 C 67 % 1014,2 hPa 0,0 mm 0,8 km/h (0 Bft) O-NO 67 7,6 C 6,2 km/h (2 Bft)
21.09.2015 18:45 13,6 C 13,5 C 67 % 1014,2 hPa 0,0 mm 0,5 km/h (0 Bft) O-SO 112 7,6 C 0,0 km/h (0 Bft)
21.09.2015 18:50 13,4 C 13,3 C 68 % 1014,2 hPa 0,0 mm 0,5 km/h (0 Bft) O-SO 112 7,6 C 0,0 km/h (0 Bft)
21.09.2015 18:55 13,1 C 13,0 C 68 % 1014,3 hPa 0,0 mm 0,0 km/h (0 Bft) O-SO 112 7,3 C 0,0 km/h (0 Bft)
21.09.2015 19:00 13,1 C 12,9 C 69 % 1014,3 hPa 0,0 mm 0,0 km/h (0 Bft) SO 135 7,5 C 0,0 km/h (0 Bft)
21.09.2015 19:05 13,0 C 12,8 C 70 % 1014,3 hPa 0,0 mm 0,0 km/h (0 Bft) SO 135 7,7 C 0,0 km/h (0 Bft)
21.09.2015 19:10 12,8 C 12,6 C 72 % 1014,3 hPa 0,0 mm 0,0 km/h (0 Bft) SO 135 7,9 C 0,0 km/h (0 Bft)
21.09.2015 19:15 12,5 C 12,3 C 73 % 1014,2 hPa 0,0 mm 0,0 km/h (0 Bft) SO 135 7,8 C 0,0 km/h (0 Bft)
21.09.2015 19:20 12,1 C 12,0 C 74 % 1014,2 hPa 0,0 mm 0,0 km/h (0 Bft) S-SO 157 7,6 C 2,6 km/h (1 Bft)
21.09.2015 19:25 11,9 C 11,8 C 75 % 1014,2 hPa 0,0 mm 0,0 km/h (0 Bft) S-SO 157 7,6 C 0,0 km/h (0 Bft)
21.09.2015 19:29 11,8 C 11,6 C 76 % 1014,2 hPa 0,0 mm 1,3 km/h (1 Bft) S-SO 157 7,7 C 2,8 km/h (1 Bft)
21.09.2015 19:30 11,8 C 11,6 C 76 % 1014,2 hPa 0,0 mm 1,3 km/h (1 Bft) S-SO 157 7,7 C 2,8 km/h (1 Bft)
21.09.2015 19:35 11,7 C 11,5 C 76 % 1014,0 hPa 0,0 mm 2,1 km/h (1 Bft) S-SO 157 7,6 C 2,8 km/h (1 Bft)
21.09.2015 19:40 11,1 C 11,1 C 75 % 1014,0 hPa 0,0 mm 1,0 km/h (0 Bft) SO 135 6,8 C 0,0 km/h (0 Bft)
21.09.2015 19:45 10,9 C 10,9 C 76 % 1014,0 hPa 0,0 mm 0,5 km/h (0 Bft) S-SO 157 6,8 C 0,0 km/h (0 Bft)
21.09.2015 19:50 10,8 C 10,7 C 77 % 1014,0 hPa 0,0 mm 0,8 km/h (0 Bft) S-SO 157 6,9 C 2,8 km/h (1 Bft)
21.09.2015 19:55 10,8 C 10,6 C 78 % 1014,1 hPa 0,0 mm 1,3 km/h (1 Bft) S-SO 157 7,1 C 2,6 km/h (1 Bft)
21.09.2015 20:00 10,6 C 10,4 C 79 % 1014,1 hPa 0,0 mm 1,0 km/h (0 Bft) S-SO 157 7,1 C 0,0 km/h (0 Bft)
21.09.2015 20:05 10,1 C 10,0 C 79 % 1014,1 hPa 0,0 mm 0,5 km/h (0 Bft) S 180 6,6 C 0,0 km/h (0 Bft)
21.09.2015 20:10 9,8 C 9,6 C 78 % 1014,1 hPa 0,0 mm 0,0 km/h (0 Bft) O-SO 112 6,1 C 0,0 km/h (0 Bft)
21.09.2015 20:15 9,7 C 9,5 C 79 % 1014,1 hPa 0,0 mm 0,0 km/h (0 Bft) O-SO 112 6,2 C 0,0 km/h (0 Bft)
21.09.2015 20:20 9,4 C 9,2 C 79 % 1014,1 hPa 0,0 mm 0,0 km/h (0 Bft) S-SO 157 5,9 C 0,0 km/h (0 Bft)
21.09.2015 20:25 9,4 C 9,0 C 81 % 1014,1 hPa 0,0 mm 0,0 km/h (0 Bft) SO 135 6,3 C 0,0 km/h (0 Bft)
21.09.2015 20:30 9,2 C 8,9 C 80 % 1014,1 hPa 0,0 mm 0,0 km/h (0 Bft) SO 135 5,9 C 0,0 km/h (0 Bft)
21.09.2015 20:35 9,0 C 8,8 C 80 % 1013,9 hPa 0,0 mm 0,0 km/h (0 Bft) SO 135 5,7 C 0,0 km/h (0 Bft)
21.09.2015 20:40 9,0 C 8,8 C 81 % 1013,9 hPa 0,0 mm 0,0 km/h (0 Bft) O-SO 112 5,9 C 0,0 km/h (0 Bft)
21.09.2015 20:45 8,9 C 8,7 C 81 % 1013,9 hPa 0,0 mm 0,0 km/h (0 Bft) SO 135 5,8 C 0,0 km/h (0 Bft)
21.09.2015 20:50 8,9 C 8,9 C 82 % 1013,9 hPa 0,0 mm 0,5 km/h (0 Bft) S-SO 157 6,0 C 3,1 km/h (1 Bft)
21.09.2015 20:55 8,9 C 9,0 C 82 % 1013,9 hPa 0,0 mm 0,5 km/h (0 Bft) S-SO 157 6,0 C 0,0 km/h (0 Bft)
21.09.2015 21:00 9,1 C 8,9 C 83 % 1013,9 hPa 0,0 mm 0,3 km/h (0 Bft) S-SO 157 6,4 C 0,0 km/h (0 Bft)
21.09.2015 21:05 9,1 C 8,9 C 83 % 1013,9 hPa 0,0 mm 0,3 km/h (0 Bft) S-SO 157 6,4 C 0,0 km/h (0 Bft)
21.09.2015 21:10 9,1 C 8,8 C 86 % 1013,9 hPa 0,0 mm 0,8 km/h (0 Bft) S-SO 157 6,9 C 3,4 km/h (1 Bft)
21.09.2015 21:15 9,0 C 8,8 C 85 % 1014,0 hPa 0,0 mm 1,0 km/h (0 Bft) SO 135 6,6 C 3,1 km/h (1 Bft)
21.09.2015 21:20 8,9 C 8,6 C 86 % 1014,0 hPa 0,0 mm 2,3 km/h (1 Bft) S-SO 157 6,7 C 0,0 km/h (0 Bft)
21.09.2015 21:25 8,7 C 8,5 C 86 % 1014,0 hPa 0,0 mm 1,6 km/h (1 Bft) S-SO 157 6,5 C 0,0 km/h (0 Bft)
21.09.2015 21:30 8,6 C 8,4 C 86 % 1014,0 hPa 0,0 mm 0,0 km/h (0 Bft) S-SO 157 6,4 C 0,0 km/h (0 Bft)
21.09.2015 21:35 8,3 C 8,1 C 86 % 1013,9 hPa 0,0 mm 0,0 km/h (0 Bft) S 180 6,1 C 0,0 km/h (0 Bft)
21.09.2015 21:40 8,1 C 7,9 C 86 % 1013,9 hPa 0,0 mm 0,0 km/h (0 Bft) S-SW 202 5,9 C 0,0 km/h (0 Bft)
21.09.2015 21:45 8,0 C 7,9 C 83 % 1013,9 hPa 0,0 mm 0,0 km/h (0 Bft) SO 135 5,3 C 0,0 km/h (0 Bft)
21.09.2015 21:50 7,7 C 7,5 C 86 % 1013,9 hPa 0,0 mm 0,0 km/h (0 Bft) SO 135 5,5 C 0,0 km/h (0 Bft)
21.09.2015 21:55 7,6 C 7,4 C 86 % 1013,9 hPa 0,0 mm 0,0 km/h (0 Bft) SO 135 5,4 C 0,0 km/h (0 Bft)
21.09.2015 22:00 7,6 C 7,4 C 86 % 1013,9 hPa 0,0 mm 0,0 km/h (0 Bft) SO 135 5,4 C 0,0 km/h (0 Bft)
21.09.2015 22:05 7,6 C 7,3 C 86 % 1013,9 hPa 0,0 mm 0,0 km/h (0 Bft) SO 135 5,4 C 0,0 km/h (0 Bft)
21.09.2015 22:10 7,4 C 7,2 C 86 % 1013,9 hPa 0,0 mm 0,0 km/h (0 Bft) S 180 5,2 C 0,0 km/h (0 Bft)
21.09.2015 22:15 7,4 C 7,2 C 86 % 1013,6 hPa 0,0 mm 0,0 km/h (0 Bft) S-SO 157 5,2 C 0,0 km/h (0 Bft)
21.09.2015 22:20 7,2 C 7,0 C 86 % 1013,6 hPa 0,0 mm 0,0 km/h (0 Bft) S-SO 157 5,0 C 0,0 km/h (0 Bft)
21.09.2015 22:25 7,2 C 7,0 C 86 % 1013,6 hPa 0,0 mm 0,0 km/h (0 Bft) S-SO 157 5,0 C 0,0 km/h (0 Bft)
21.09.2015 22:30 7,0 C 6,8 C 86 % 1013,6 hPa 0,0 mm 0,0 km/h (0 Bft) S-SO 157 4,8 C 0,0 km/h (0 Bft)
21.09.2015 22:35 6,9 C 6,7 C 86 % 1013,7 hPa 0,0 mm 0,0 km/h (0 Bft) S-SW 202 4,7 C 0,0 km/h (0 Bft)
21.09.2015 22:40 6,9 C 6,6 C 86 % 1013,7 hPa 0,0 mm 0,0 km/h (0 Bft) S-SW 202 4,7 C 0,0 km/h (0 Bft)
21.09.2015 22:45 6,8 C 6,5 C 86 % 1013,7 hPa 0,0 mm 0,0 km/h (0 Bft) S-SW 202 4,6 C 0,0 km/h (0 Bft)
21.09.2015 22:50 6,6 C 6,4 C 86 % 1013,7 hPa 0,0 mm 0,0 km/h (0 Bft) S 180 4,4 C 0,0 km/h (0 Bft)
21.09.2015 22:55 6,3 C 6,1 C 86 % 1013,2 hPa 0,0 mm 0,0 km/h (0 Bft) S 180 4,1 C 0,0 km/h (0 Bft)
21.09.2015 23:00 6,5 C 6,3 C 87 % 1013,2 hPa 0,0 mm 0,0 km/h (0 Bft) S 180 4,5 C 0,0 km/h (0 Bft)
21.09.2015 23:05 6,4 C 6,2 C 87 % 1013,2 hPa 0,0 mm 0,0 km/h (0 Bft) S 180 4,4 C 0,0 km/h (0 Bft)
21.09.2015 23:10 6,3 C 6,1 C 87 % 1013,2 hPa 0,0 mm 0,0 km/h (0 Bft) S 180 4,3 C 0,0 km/h (0 Bft)
21.09.2015 23:15 6,7 C 6,3 C 87 % 1013,2 hPa 0,0 mm 0,0 km/h (0 Bft) SO 135 4,7 C 0,0 km/h (0 Bft)
21.09.2015 23:20 6,4 C 6,2 C 87 % 1013,2 hPa 0,0 mm 0,0 km/h (0 Bft) SO 135 4,4 C 0,0 km/h (0 Bft)
21.09.2015 23:25 6,4 C 6,2 C 87 % 1013,2 hPa 0,0 mm 0,0 km/h (0 Bft) S 180 4,4 C 0,0 km/h (0 Bft)
21.09.2015 23:30 6,5 C 6,3 C 88 % 1013,2 hPa 0,0 mm 0,0 km/h (0 Bft) S-SW 202 4,7 C 0,0 km/h (0 Bft)
21.09.2015 23:35 6,4 C 6,2 C 88 % 1013,1 hPa 0,0 mm 0,0 km/h (0 Bft) SW 225 4,6 C 0,0 km/h (0 Bft)
21.09.2015 23:40 6,7 C 6,5 C 88 % 1013,1 hPa 0,0 mm 0,0 km/h (0 Bft) NW 315 4,9 C 0,0 km/h (0 Bft)
21.09.2015 23:45 6,4 C 6,3 C 88 % 1013,1 hPa 0,0 mm 0,0 km/h (0 Bft) NW 315 4,6 C 0,0 km/h (0 Bft)
21.09.2015 23:50 6,5 C 6,4 C 88 % 1013,1 hPa 0,0 mm 0,0 km/h (0 Bft) O-NO 67 4,7 C 0,0 km/h (0 Bft)
21.09.2015 23:55 6,3 C 6,2 C 88 % 1012,8 hPa 0,0 mm 0,0 km/h (0 Bft) NO 45 4,5 C 0,0 km/h (0 Bft)
_ Min-Zeit 06:45 06:45 16:45 23:55 - 23:55 - - 06:45 23:55
Minimum _ 4,2 C 4,1 C 59 % 1012,8 hPa - 0,0 km/h (0 Bft) - - 2,7 C 0,0 km/h (0 Bft)
_ Max-Zeit 16:05 16:35 07:15 00:10 23:55 14:15 - - 12:40 14:00
Maximum _ 17,4 C 21,4 C 92 % 1022,0 hPa 0,0 mm 10,4 km/h
N (2 Bft)
- - 9,9 C 23,8 km/h
NO (4 Bft)
Durchschnitt _ 10,4 C 11,4 C 80 % 1017,6 hPa #0,0 mm 2,5 km/h (1 Bft) N-NO - 6,9 C 3,5 km/h (1 Bft)